SCP
0 0 0 0 0 0 0 0 0 0 0 0 0 0 0 0 0 0 0 -0 0 -0 -0 -0 -0 -0 -0 -0 -0 -0 -0 -0 -0 -0 -0 -0 -0 -0 -0 -0 -0 -0 -0 -0 0 -0 -0 -0 -0
0 0 0 0 0 0 0 0 0 0 0 0 0 0 0 0 0 0 0 0 0 -0 0 0 -0 -0 -0 -0 -0 -0 -0 -0 -0 -0 -0 0 0 0 -0 -0 0 -0 -0 -0 0 0 0 0 -0
0 0 0 0 0 0 0 0 0 0 0 0 0 0 0 0 0 0 0 0 0 0 0 0 0 0 0 0 -0 -0 -0 -0 0 0 0 0 0 0 0 0 -0 -0 -0 -0 0 0 0 0 0
0 0 0 0 0 0 0 0 0 0 0 0 0 0 0 0 0 0 0 0 0 0 0 0 0 0 0 0 -0 -0 -0 -0 0 0 0 0 0 0 0 0 0 0 -0 -0 0 0 0 0 0
0 0 0 0 0 0 0 0 0 0 0 0 0 0 0 0 0 0 0 0 1 0 1 0 0 0 0 0 0 -0 -0 -0 0 0 0 0 0 0 0 0 0 0 0 -0 0 0 0 0 0
0 0 0 0 0 0 0 0 0 0 0 0 0 0 0 0 0 0 0 0 1 1 1 1 0 0 0 0 0 0 -0 -0 -0 0 0 0 0 0 0 0 0 0 -0 -0 -0 -0 -0 -0 0
0 0 0 0 0 0 0 0 0 0 0 0 0 0 0 0 0 0 0 0 1 1 1 1 1 0 0 0 0 -0 0 0 0 0 -0 -0 -0 -0 -0 0 0 -0 -0 -0 -0 -0 0 0 0
0 0 0 0 0 0 0 0 0 0 0 0 0 0 0 0 0 0 0 0 0 1 1 1 1 1 1 1 0 0 -0 -0 0 0 0 0 0 -0 -0 -0 -0 -0 -0 -0 -0 -0 0 0 0
0 0 0 0 0 0 0 0 0 0 0 0 0 0 0 0 0 0 0 0 0 1 1 1 1 1 1 1 1 0 0 0 -0 -0 -0 0 -0 -0 -0 -0 -0 -0 -0 -0 -0 -0 -0 0 0
0 0 0 0 0 0 0 0 0 0 0 0 0 0 0 0 0 0 0 0 0 0 1 1 1 1 1 1 1 1 1 1 0 0 0 -0 -0 -0 -0 -0 -0 -0 -0 -0 -0 -0 -0 -0 0
0 0 0 0 0 0 0 0 0 0 0 0 0 0 0 0 0 0 0 0 0 0 1 1 1 1 1 2 2 2 1 1 1 0 0 0 0 0 0 -0 -0 -0 -0 -0 -0 -0 0 0 0
0 0 0 0 0 0 0 0 0 0 0 0 0 0 0 0 0 0 0 0 0 0 0 1 1 1 1 2 2 1 1 2 1 0 0 0 0 0 0 0 0 -0 0 0 0 0 0 0 0
0 0 0 0 0 0 0 0 0 0 0 0 0 0 0 0 0 0 0 0 0 1 1 1 2 1 1 1 2 1 1 2 1 1 0 0 0 0 0 0 0 0 0 0 0 0 0 0 0
0 0 0 0 0 0 0 0 0 0 0 0 0 0 0 0 0 0 0 0 0 1 1 1 1 1 1 2 2 1 2 1 1 1 1 1 0 0 0 0 0 0 0 0 0 0 0 0 0
0 0 0 0 0 0 0 0 0 0 0 0 0 0 0 0 0 0 0 0 0 0 1 1 1 1 1 1 2 1 1 1 0 0 0 0 0 0 0 0 0 0 0 0 0 0 0 0 0
0 0 0 0 0 0 0 0 0 -0 -0 0 0 0 0 0 0 0 0 0 0 0 0 1 1 1 1 1 2 1 1 1 0 0 0 0 0 0 0 0 0 0 0 0 0 0 0 0 0
0 0 0 0 0 0 0 0 -0 -0 -0 0 0 0 0 0 0 0 0 0 0 0 0 1 1 1 1 1 2 1 1 1 2 1 0 0 1 1 1 0 0 0 0 0 0 0 0 0 0
0 0 0 0 0 0 0 0 0 0 0 0 0 0 0 0 0 0 0 0 0 0 0 1 1 1 1 2 2 3 3 2 2 2 2 2 0 -0 0 1 1 1 1 1 0 0 0 0 0
0 0 0 0 0 0 0 0 0 0 0 0 0 0 0 0 0 0 0 0 0 0 0 0 1 2 3 3 3 4 3 3 2 2 2 1 1 3 2 0 1 1 0 1 0 0 0 0 0
0 0 0 0 0 0 0 0 0 0 0 0 0 0 0 0 0 0 0 0 0 0 0 0 0 1 3 4 2 3 3 2 2 2 1 1 2 2 1 1 1 1 0 0 0 0 0 0 0
0 0 0 0 0 0 0 0 0 0 0 0 0 0 0 0 0 0 0 0 0 0 0 0 0 0 1 0 0 0 0 0 1 1 2 2 1 1 1 0 0 -0 0 0 -0 0 0 1 0
0 0 0 0 0 0 0 -0 0 0 0 0 0 0 0 0 0 0 0 0 0 0 0 0 0 0 0 0 0 0 0 0 0 0 0 1 1 1 1 0 0 1 2 0 -0 0 0 0 0
0 0 0 0 0 0 0 0 0 0 0 0 0 0 0 0 0 0 0 0 0 0 0 0 0 0 0 0 0 0 0 0 0 0 0 0 0 0 0 1 1 1 2 1 1 1 0 -0 0
0 0 0 0 0 0 0 0 0 0 0 0 0 0 0 0 0 0 0 0 0 0 0 0 0 0 0 0 0 0 0 0 0 0 0 0 0 0 0 0 0 0 0 1 2 2 0 0 0
0 0 0 0 0 0 0 0 0 0 0 0 0 0 0 0 0 0 0 0 0 0 0 0 0 0 0 0 0 0 0 0 0 0 0 0 0 0 0 0 0 0 0 2 2 3 2 -0 -0
0 0 0 0 0 0 0 0 0 0 0 0 0 0 0 0 0 0 0 0 0 0 0 0 0 0 0 0 0 0 0 0 0 0 0 0 0 0 0 0 0 0 0 0 0 1 1 1 1
0 0 0 0 0 0 0 0 0 0 0 0 0 0 0 0 0 0 0 0 0 0 0 0 0 0 0 0 0 0 0 0 0 0 0 0 0 0 0 0 0 0 0 0 1 0 1 1 1
0 0 0 0 0 0 0 0 0 0 0 0 0 0 0 0 0 0 0 -0 0 0 0 0 0 0 0 0 0 0 0 0 0 0 0 0 0 0 0 0 0 0 0 0 0 0 0 0 0
0 0 0 0 0 0 0 0 0 0 0 0 0 0 0 0 0 0 0 0 0 0 0 0 0 0 0 0 0 0 0 0 0 0 0 0 0 0 0 0 0 0 0 0 0 0 0 0 0
0 0 0 0 0 0 0 0 0 0 0 0 0 0 0 0 0 0 0 0 0 0 0 -0 -0 -0 -0 0 -0 -0 0 0 0 0 0 0 0 0 0 0 0 0 0 0 0 0 0 0 0
Wind_Speed_500mb
23 22 19 5 6 9 2 6 5 9 12 7 13 6 17 10 3 7 7 55 48 62 68 64 56 49 48 52 55 55 51 44 37 39 38 37 35 34 32 30 30 28 27 26 23 22 19 17 16
21 18 8 3 8 8 8 5 4 3 6 11 6 8 12 5 15 3 31 37 53 62 67 66 61 55 52 54 55 56 53 47 45 43 41 38 36 35 34 31 29 26 24 22 21 19 17 15 13
17 15 7 8 5 9 8 8 7 7 28 18 8 14 7 8 12 12 26 23 51 65 65 62 60 58 56 56 57 57 56 54 49 44 41 38 35 33 31 29 27 24 22 19 17 16 13 12 10
7 2 8 7 9 8 4 6 2 8 17 26 9 9 5 15 4 11 21 21 54 63 65 64 63 61 60 58 58 57 56 52 48 44 41 38 35 32 29 27 24 22 19 16 14 13 11 9 6
3 4 6 2 10 8 5 13 9 1 3 15 14 3 6 13 12 10 16 26 59 66 67 66 63 62 61 60 58 57 54 51 47 44 40 38 35 32 28 25 22 19 16 13 10 8 7 5 3
4 6 6 7 9 6 9 7 12 2 7 9 11 4 4 9 13 11 12 30 56 62 66 67 65 63 61 58 57 55 52 50 48 45 41 38 35 31 28 24 21 17 14 11 8 6 5 3 2
11 7 8 5 6 7 7 7 7 6 13 10 8 6 1 9 6 9 10 30 53 58 64 68 67 65 62 59 55 53 51 49 46 43 41 38 34 30 27 24 20 17 13 9 7 4 4 3 3
9 8 8 7 7 7 4 12 1 20 5 15 14 8 6 10 15 19 19 29 52 62 66 70 71 70 67 62 57 54 52 50 47 44 40 37 34 30 26 23 20 17 14 11 8 6 8 6 5
12 8 7 11 11 8 6 12 2 32 11 20 3 18 20 23 25 30 33 38 54 62 69 72 73 73 70 67 62 57 54 51 50 48 44 40 35 32 28 24 21 18 14 12 12 12 12 9 8
8 8 16 10 7 6 3 14 24 16 38 6 14 9 19 33 38 35 40 43 54 62 71 75 77 77 74 69 66 63 58 55 51 48 46 43 39 35 30 26 24 21 19 17 17 17 17 11 10
11 11 9 9 19 19 9 16 24 7 14 21 26 25 19 42 43 43 40 35 40 55 63 70 77 80 79 76 72 68 65 59 55 52 50 46 43 39 36 32 29 25 22 20 20 17 15 8 7
6 13 14 11 22 21 11 28 6 17 41 54 48 42 24 45 48 48 48 39 40 44 57 69 77 84 84 82 79 74 71 67 63 59 55 52 48 45 41 37 32 29 24 21 20 17 14 9 4
8 9 15 30 31 29 37 30 24 25 45 41 39 45 37 38 53 57 50 47 46 41 46 60 76 82 85 84 84 82 79 74 66 62 57 54 52 48 43 41 37 32 28 24 22 22 22 19 12
6 4 13 15 22 16 12 24 9 8 32 41 37 38 40 41 62 67 55 45 46 44 44 58 70 69 78 82 83 79 75 70 66 62 59 56 52 51 46 46 42 38 35 31 29 28 30 27 24
2 5 8 10 9 12 8 16 9 19 23 29 33 35 39 38 55 70 61 58 58 53 43 44 60 66 69 72 79 76 59 61 55 57 58 57 53 49 50 49 47 43 41 38 36 32 31 33 32
5 9 3 9 5 12 14 18 13 8 10 21 29 34 38 33 47 62 63 61 59 60 48 51 61 65 70 70 75 74 78 60 70 52 58 58 55 56 55 55 52 47 42 42 43 35 31 34 38
12 5 4 13 7 7 10 10 10 21 17 19 26 31 33 38 40 52 59 61 63 60 54 52 53 55 61 65 65 60 62 67 83 92 53 50 45 47 49 51 53 48 39 35 34 35 31 31 34
5 2 5 9 7 5 14 12 17 33 26 31 31 32 34 37 39 46 68 69 68 62 54 52 52 54 57 58 59 55 54 55 61 73 75 87 54 46 44 34 40 41 43 30 29 36 37 35 40
5 8 10 13 21 6 16 12 18 28 32 36 33 33 35 38 38 38 55 78 77 72 68 64 61 61 61 71 69 64 65 67 69 70 68 61 77 92 69 60 44 51 56 37 29 38 39 41 45
10 9 15 17 25 13 17 15 16 13 15 21 31 41 32 24 28 29 38 47 79 80 79 74 69 67 67 73 74 74 68 65 64 56 44 58 83 85 85 90 86 61 55 38 33 38 37 40 42
8 9 10 17 8 5 4 9 11 11 13 31 30 27 30 38 46 40 37 33 52 72 85 87 80 77 76 80 80 74 67 64 59 60 55 49 58 72 70 75 52 96 63 49 49 39 37 38 36
8 15 15 11 2 9 7 20 7 10 13 12 29 37 53 51 44 36 44 48 48 47 65 90 92 91 87 84 82 81 78 73 65 62 61 57 59 58 62 66 64 82 94 81 77 57 48 46 40
19 9 13 10 9 4 6 2 14 5 11 20 17 34 36 45 48 54 45 43 47 51 56 64 89 88 89 89 88 79 70 70 63 58 51 53 56 55 55 58 55 56 70 67 81 74 72 65 55
6 3 9 8 5 6 14 12 9 11 17 11 11 39 56 50 43 48 54 57 59 57 57 66 72 84 83 80 73 68 65 64 60 60 58 55 51 52 49 48 52 56 53 57 62 77 71 73 70
7 10 8 8 5 20 15 11 22 13 18 16 20 48 57 57 53 59 56 64 65 66 70 70 74 84 80 74 70 63 55 49 46 46 44 47 50 47 46 50 54 55 62 67 68 74 89 79 74
14 16 10 13 9 16 6 12 11 15 16 24 26 35 39 45 41 47 57 52 63 74 72 83 86 89 80 73 59 45 39 37 37 37 39 44 46 46 52 58 57 52 51 52 55 59 70 85 68
7 8 8 4 4 5 9 13 12 11 8 12 19 28 16 22 28 27 30 37 49 49 52 73 88 82 69 57 45 40 34 33 27 22 24 29 38 41 38 36 39 45 49 51 51 52 52 56 66
7 11 3 2 8 13 8 7 10 12 7 10 15 26 30 28 26 28 21 22 28 31 39 52 62 55 49 41 39 33 31 28 21 24 21 22 27 32 32 30 30 31 36 40 41 42 42 44 48
2 4 8 6 4 8 16 10 10 7 7 12 16 28 28 32 31 30 21 16 14 19 23 48 55 55 51 50 49 40 38 29 30 36 31 26 24 27 26 23 22 18 11 17 22 23 25 32 37
3 5 7 8 7 8 5 21 6 8 9 14 27 38 39 34 41 38 35 28 12 14 29 33 42 48 58 58 64 59 52 44 46 47 43 37 32 31 27 25 23 18 14 12 10 14 18 23 26
Wind_Direction_500mb
314 327 332 310 63 67 242 272 243 349 353 301 346 134 120 106 158 217 227 172 174 172 170 172 174 173 169 163 164 167 169 169 169 159 151 144 139 137 135 133 127 124 122 120 117 114 110 108 111
311 326 329 71 104 110 250 145 242 180 300 333 18 65 66 71 17 122 149 167 177 175 172 173 170 168 163 159 159 162 166 168 161 154 149 146 143 142 139 135 131 129 126 124 122 119 116 111 106
306 330 338 88 104 171 180 122 253 304 39 50 29 43 52 353 17 132 162 172 175 177 173 173 170 167 163 158 157 158 160 159 158 156 153 150 149 147 143 141 138 137 136 134 132 126 119 110 109
284 348 56 87 228 258 216 84 319 334 15 51 84 29 55 23 7 164 181 187 177 179 175 174 172 169 166 163 161 161 161 161 161 160 158 156 155 153 151 149 147 147 146 146 146 139 129 120 106
242 88 70 23 262 257 247 312 27 166 24 42 62 37 48 40 83 135 182 199 181 180 177 176 177 173 171 168 167 168 168 166 166 165 164 163 162 162 160 159 157 157 157 158 157 140 131 131 121
129 111 84 215 243 282 298 315 357 317 150 121 66 52 47 61 125 132 182 189 185 184 181 180 179 179 177 176 175 176 176 173 172 171 171 170 170 170 169 168 168 167 169 168 164 162 173 175 212
134 99 188 228 259 312 249 8 68 266 191 220 133 108 212 99 165 152 160 189 187 190 188 185 184 185 185 184 184 184 183 181 180 179 178 177 178 180 179 179 178 176 178 180 185 198 231 231 261
154 95 155 218 227 260 266 335 332 38 263 273 160 180 221 208 186 184 179 196 194 195 195 192 190 191 191 191 191 193 192 189 187 187 186 186 187 189 191 191 191 190 191 198 215 236 258 268 281
144 80 194 214 167 235 345 16 309 331 319 328 255 266 217 228 212 194 189 191 200 202 201 199 197 197 198 197 198 199 200 200 196 193 193 194 197 198 200 202 204 207 213 227 233 244 254 267 278
118 143 213 217 203 260 306 310 319 337 323 302 8 320 235 209 202 204 205 201 201 207 207 206 204 203 203 204 204 205 206 207 206 204 201 201 203 205 208 213 217 220 225 236 250 262 270 267 256
162 184 211 250 248 275 285 289 292 258 293 281 313 325 234 200 199 211 208 216 228 211 212 215 213 210 209 209 210 211 212 213 213 213 211 209 210 213 215 217 225 232 239 247 252 255 269 270 224
143 234 209 268 258 279 271 286 281 253 272 291 294 289 278 221 210 209 205 201 195 205 212 216 219 218 214 213 214 217 218 218 218 219 218 217 218 218 221 226 230 238 248 251 250 253 260 268 200
181 239 239 259 273 272 276 267 258 263 285 297 290 282 258 238 225 213 218 211 202 211 221 221 222 222 221 219 220 220 220 223 224 226 227 227 227 227 230 233 238 244 251 259 262 262 267 271 258
220 240 283 286 272 257 239 265 253 306 300 295 300 288 275 253 235 224 212 221 232 227 228 227 225 226 227 225 227 227 227 228 227 231 234 237 240 242 237 240 240 249 255 258 260 266 274 278 280
274 321 332 248 249 243 246 293 202 282 284 287 294 296 285 261 224 218 229 229 224 229 224 232 223 223 223 227 230 229 242 233 237 241 242 243 244 245 252 253 250 250 259 261 258 261 267 277 283
75 44 360 280 224 251 166 273 286 311 321 298 292 287 292 280 241 228 228 231 228 221 228 224 220 222 223 223 228 222 212 239 254 247 254 249 251 255 252 255 254 256 257 265 264 256 258 275 286
8 229 226 309 250 271 175 278 262 321 336 303 304 293 286 287 266 241 228 226 226 215 216 217 220 226 226 226 230 226 224 226 233 238 264 262 261 260 260 262 261 264 251 254 268 273 274 279 288
224 260 259 252 274 199 288 251 286 303 315 306 305 301 299 293 290 269 240 227 222 222 228 221 227 224 220 222 223 216 209 213 214 213 211 225 269 286 273 269 272 269 262 248 268 287 289 290 298
191 207 242 255 260 229 253 253 264 285 306 305 305 310 311 311 306 284 253 240 226 222 221 228 227 220 224 216 214 213 215 213 216 226 241 241 224 244 254 273 275 263 260 256 261 279 286 291 300
215 247 261 276 261 168 260 258 253 244 248 253 293 304 313 321 331 327 288 261 234 229 225 225 228 227 222 219 220 218 219 220 229 244 235 238 240 242 232 230 247 259 262 261 266 269 282 286 297
209 189 237 226 307 264 326 293 250 255 259 282 284 277 288 301 306 305 305 299 256 247 236 227 231 228 225 219 216 220 222 226 231 228 236 241 232 231 241 245 225 268 266 286 298 274 279 291 294
251 220 242 253 168 242 125 282 238 240 255 269 273 288 296 299 293 288 295 295 295 290 252 239 230 225 223 219 219 222 225 228 234 238 238 233 241 243 246 232 240 243 241 277 271 275 280 278 290
244 219 232 253 232 57 282 291 277 229 273 269 254 272 292 299 292 292 289 286 288 284 281 255 236 227 223 222 223 221 226 230 235 237 234 234 231 233 225 228 237 247 249 240 253 256 256 266 271
225 185 45 52 89 238 231 209 191 223 240 275 268 277 290 298 291 283 288 284 277 274 268 266 240 226 222 220 221 224 228 230 234 239 240 238 236 232 230 227 227 230 232 237 243 238 267 270 275
127 81 311 312 300 264 222 238 252 234 247 227 269 300 303 299 286 286 284 286 280 273 263 256 243 227 222 220 219 222 225 232 236 242 244 243 244 243 238 238 242 247 245 246 251 250 249 263 274
185 160 181 245 242 273 29 242 247 217 250 308 321 316 311 297 281 280 283 280 282 278 264 245 236 225 218 217 217 217 223 231 239 245 252 256 260 258 254 252 251 251 251 251 254 249 250 259 265
193 177 199 175 44 340 225 295 305 279 12 354 345 8 328 334 317 304 312 310 294 282 264 247 230 214 209 210 209 215 214 228 224 242 267 263 259 259 259 252 249 250 251 253 255 255 254 247 252
171 149 121 17 294 264 239 264 242 267 255 315 342 343 352 341 322 330 343 337 330 302 266 243 214 207 202 210 213 218 233 218 227 241 252 272 264 256 256 252 245 245 249 252 257 265 265 261 260
166 178 67 96 167 261 289 253 219 249 234 285 301 319 315 320 324 301 336 16 23 326 279 209 198 202 207 200 216 212 213 220 227 235 241 247 247 248 247 244 239 235 234 240 245 258 273 276 274
87 131 150 164 213 231 240 264 309 282 251 270 303 314 317 313 320 311 306 287 283 302 343 255 246 226 223 218 227 227 230 231 233 235 240 241 241 235 241 237 233 233 240 248 259 285 312 313 303
Wind_Speed_850mb
23 22 19 5 6 9 2 6 5 9 12 7 13 6 17 10 3 7 7 55 48 62 68 64 56 49 48 52 55 55 51 44 37 39 38 37 35 34 32 30 30 28 27 26 23 22 19 17 16
21 18 8 3 8 8 8 5 4 3 6 11 6 8 12 5 15 3 31 37 53 62 67 66 61 55 52 54 55 56 53 47 45 43 41 38 36 35 34 31 29 26 24 22 21 19 17 15 13
17 15 7 8 5 9 8 8 7 7 28 18 8 14 7 8 12 12 26 23 51 65 65 62 60 58 56 56 57 57 56 54 49 44 41 38 35 33 31 29 27 24 22 19 17 16 13 12 10
7 2 8 7 9 8 4 6 2 8 17 26 9 9 5 15 4 11 21 21 54 63 65 64 63 61 60 58 58 57 56 52 48 44 41 38 35 32 29 27 24 22 19 16 14 13 11 9 6
3 4 6 2 10 8 5 13 9 1 3 15 14 3 6 13 12 10 16 26 59 66 67 66 63 62 61 60 58 57 54 51 47 44 40 38 35 32 28 25 22 19 16 13 10 8 7 5 3
4 6 6 7 9 6 9 7 12 2 7 9 11 4 4 9 13 11 12 30 56 62 66 67 65 63 61 58 57 55 52 50 48 45 41 38 35 31 28 24 21 17 14 11 8 6 5 3 2
11 7 8 5 6 7 7 7 7 6 13 10 8 6 1 9 6 9 10 30 53 58 64 68 67 65 62 59 55 53 51 49 46 43 41 38 34 30 27 24 20 17 13 9 7 4 4 3 3
9 8 8 7 7 7 4 12 1 20 5 15 14 8 6 10 15 19 19 29 52 62 66 70 71 70 67 62 57 54 52 50 47 44 40 37 34 30 26 23 20 17 14 11 8 6 8 6 5
12 8 7 11 11 8 6 12 2 32 11 20 3 18 20 23 25 30 33 38 54 62 69 72 73 73 70 67 62 57 54 51 50 48 44 40 35 32 28 24 21 18 14 12 12 12 12 9 8
8 8 16 10 7 6 3 14 24 16 38 6 14 9 19 33 38 35 40 43 54 62 71 75 77 77 74 69 66 63 58 55 51 48 46 43 39 35 30 26 24 21 19 17 17 17 17 11 10
11 11 9 9 19 19 9 16 24 7 14 21 26 25 19 42 43 43 40 35 40 55 63 70 77 80 79 76 72 68 65 59 55 52 50 46 43 39 36 32 29 25 22 20 20 17 15 8 7
6 13 14 11 22 21 11 28 6 17 41 54 48 42 24 45 48 48 48 39 40 44 57 69 77 84 84 82 79 74 71 67 63 59 55 52 48 45 41 37 32 29 24 21 20 17 14 9 4
8 9 15 30 31 29 37 30 24 25 45 41 39 45 37 38 53 57 50 47 46 41 46 60 76 82 85 84 84 82 79 74 66 62 57 54 52 48 43 41 37 32 28 24 22 22 22 19 12
6 4 13 15 22 16 12 24 9 8 32 41 37 38 40 41 62 67 55 45 46 44 44 58 70 69 78 82 83 79 75 70 66 62 59 56 52 51 46 46 42 38 35 31 29 28 30 27 24
2 5 8 10 9 12 8 16 9 19 23 29 33 35 39 38 55 70 61 58 58 53 43 44 60 66 69 72 79 76 59 61 55 57 58 57 53 49 50 49 47 43 41 38 36 32 31 33 32
5 9 3 9 5 12 14 18 13 8 10 21 29 34 38 33 47 62 63 61 59 60 48 51 61 65 70 70 75 74 78 60 70 52 58 58 55 56 55 55 52 47 42 42 43 35 31 34 38
12 5 4 13 7 7 10 10 10 21 17 19 26 31 33 38 40 52 59 61 63 60 54 52 53 55 61 65 65 60 62 67 83 92 53 50 45 47 49 51 53 48 39 35 34 35 31 31 34
5 2 5 9 7 5 14 12 17 33 26 31 31 32 34 37 39 46 68 69 68 62 54 52 52 54 57 58 59 55 54 55 61 73 75 87 54 46 44 34 40 41 43 30 29 36 37 35 40
5 8 10 13 21 6 16 12 18 28 32 36 33 33 35 38 38 38 55 78 77 72 68 64 61 61 61 71 69 64 65 67 69 70 68 61 77 92 69 60 44 51 56 37 29 38 39 41 45
10 9 15 17 25 13 17 15 16 13 15 21 31 41 32 24 28 29 38 47 79 80 79 74 69 67 67 73 74 74 68 65 64 56 44 58 83 85 85 90 86 61 55 38 33 38 37 40 42
8 9 10 17 8 5 4 9 11 11 13 31 30 27 30 38 46 40 37 33 52 72 85 87 80 77 76 80 80 74 67 64 59 60 55 49 58 72 70 75 52 96 63 49 49 39 37 38 36
8 15 15 11 2 9 7 20 7 10 13 12 29 37 53 51 44 36 44 48 48 47 65 90 92 91 87 84 82 81 78 73 65 62 61 57 59 58 62 66 64 82 94 81 77 57 48 46 40
19 9 13 10 9 4 6 2 14 5 11 20 17 34 36 45 48 54 45 43 47 51 56 64 89 88 89 89 88 79 70 70 63 58 51 53 56 55 55 58 55 56 70 67 81 74 72 65 55
6 3 9 8 5 6 14 12 9 11 17 11 11 39 56 50 43 48 54 57 59 57 57 66 72 84 83 80 73 68 65 64 60 60 58 55 51 52 49 48 52 56 53 57 62 77 71 73 70
7 10 8 8 5 20 15 11 22 13 18 16 20 48 57 57 53 59 56 64 65 66 70 70 74 84 80 74 70 63 55 49 46 46 44 47 50 47 46 50 54 55 62 67 68 74 89 79 74
14 16 10 13 9 16 6 12 11 15 16 24 26 35 39 45 41 47 57 52 63 74 72 83 86 89 80 73 59 45 39 37 37 37 39 44 46 46 52 58 57 52 51 52 55 59 70 85 68
7 8 8 4 4 5 9 13 12 11 8 12 19 28 16 22 28 27 30 37 49 49 52 73 88 82 69 57 45 40 34 33 27 22 24 29 38 41 38 36 39 45 49 51 51 52 52 56 66
7 11 3 2 8 13 8 7 10 12 7 10 15 26 30 28 26 28 21 22 28 31 39 52 62 55 49 41 39 33 31 28 21 24 21 22 27 32 32 30 30 31 36 40 41 42 42 44 48
2 4 8 6 4 8 16 10 10 7 7 12 16 28 28 32 31 30 21 16 14 19 23 48 55 55 51 50 49 40 38 29 30 36 31 26 24 27 26 23 22 18 11 17 22 23 25 32 37
3 5 7 8 7 8 5 21 6 8 9 14 27 38 39 34 41 38 35 28 12 14 29 33 42 48 58 58 64 59 52 44 46 47 43 37 32 31 27 25 23 18 14 12 10 14 18 23 26
Wind_Direction_850mb
314 327 332 310 63 67 242 272 243 349 353 301 346 134 120 106 158 217 227 172 174 172 170 172 174 173 169 163 164 167 169 169 169 159 151 144 139 137 135 133 127 124 122 120 117 114 110 108 111
311 326 329 71 104 110 250 145 242 180 300 333 18 65 66 71 17 122 149 167 177 175 172 173 170 168 163 159 159 162 166 168 161 154 149 146 143 142 139 135 131 129 126 124 122 119 116 111 106
306 330 338 88 104 171 180 122 253 304 39 50 29 43 52 353 17 132 162 172 175 177 173 173 170 167 163 158 157 158 160 159 158 156 153 150 149 147 143 141 138 137 136 134 132 126 119 110 109
284 348 56 87 228 258 216 84 319 334 15 51 84 29 55 23 7 164 181 187 177 179 175 174 172 169 166 163 161 161 161 161 161 160 158 156 155 153 151 149 147 147 146 146 146 139 129 120 106
242 88 70 23 262 257 247 312 27 166 24 42 62 37 48 40 83 135 182 199 181 180 177 176 177 173 171 168 167 168 168 166 166 165 164 163 162 162 160 159 157 157 157 158 157 140 131 131 121
129 111 84 215 243 282 298 315 357 317 150 121 66 52 47 61 125 132 182 189 185 184 181 180 179 179 177 176 175 176 176 173 172 171 171 170 170 170 169 168 168 167 169 168 164 162 173 175 212
134 99 188 228 259 312 249 8 68 266 191 220 133 108 212 99 165 152 160 189 187 190 188 185 184 185 185 184 184 184 183 181 180 179 178 177 178 180 179 179 178 176 178 180 185 198 231 231 261
154 95 155 218 227 260 266 335 332 38 263 273 160 180 221 208 186 184 179 196 194 195 195 192 190 191 191 191 191 193 192 189 187 187 186 186 187 189 191 191 191 190 191 198 215 236 258 268 281
144 80 194 214 167 235 345 16 309 331 319 328 255 266 217 228 212 194 189 191 200 202 201 199 197 197 198 197 198 199 200 200 196 193 193 194 197 198 200 202 204 207 213 227 233 244 254 267 278
118 143 213 217 203 260 306 310 319 337 323 302 8 320 235 209 202 204 205 201 201 207 207 206 204 203 203 204 204 205 206 207 206 204 201 201 203 205 208 213 217 220 225 236 250 262 270 267 256
162 184 211 250 248 275 285 289 292 258 293 281 313 325 234 200 199 211 208 216 228 211 212 215 213 210 209 209 210 211 212 213 213 213 211 209 210 213 215 217 225 232 239 247 252 255 269 270 224
143 234 209 268 258 279 271 286 281 253 272 291 294 289 278 221 210 209 205 201 195 205 212 216 219 218 214 213 214 217 218 218 218 219 218 217 218 218 221 226 230 238 248 251 250 253 260 268 200
181 239 239 259 273 272 276 267 258 263 285 297 290 282 258 238 225 213 218 211 202 211 221 221 222 222 221 219 220 220 220 223 224 226 227 227 227 227 230 233 238 244 251 259 262 262 267 271 258
220 240 283 286 272 257 239 265 253 306 300 295 300 288 275 253 235 224 212 221 232 227 228 227 225 226 227 225 227 227 227 228 227 231 234 237 240 242 237 240 240 249 255 258 260 266 274 278 280
274 321 332 248 249 243 246 293 202 282 284 287 294 296 285 261 224 218 229 229 224 229 224 232 223 223 223 227 230 229 242 233 237 241 242 243 244 245 252 253 250 250 259 261 258 261 267 277 283
75 44 360 280 224 251 166 273 286 311 321 298 292 287 292 280 241 228 228 231 228 221 228 224 220 222 223 223 228 222 212 239 254 247 254 249 251 255 252 255 254 256 257 265 264 256 258 275 286
8 229 226 309 250 271 175 278 262 321 336 303 304 293 286 287 266 241 228 226 226 215 216 217 220 226 226 226 230 226 224 226 233 238 264 262 261 260 260 262 261 264 251 254 268 273 274 279 288
224 260 259 252 274 199 288 251 286 303 315 306 305 301 299 293 290 269 240 227 222 222 228 221 227 224 220 222 223 216 209 213 214 213 211 225 269 286 273 269 272 269 262 248 268 287 289 290 298
191 207 242 255 260 229 253 253 264 285 306 305 305 310 311 311 306 284 253 240 226 222 221 228 227 220 224 216 214 213 215 213 216 226 241 241 224 244 254 273 275 263 260 256 261 279 286 291 300
215 247 261 276 261 168 260 258 253 244 248 253 293 304 313 321 331 327 288 261 234 229 225 225 228 227 222 219 220 218 219 220 229 244 235 238 240 242 232 230 247 259 262 261 266 269 282 286 297
209 189 237 226 307 264 326 293 250 255 259 282 284 277 288 301 306 305 305 299 256 247 236 227 231 228 225 219 216 220 222 226 231 228 236 241 232 231 241 245 225 268 266 286 298 274 279 291 294
251 220 242 253 168 242 125 282 238 240 255 269 273 288 296 299 293 288 295 295 295 290 252 239 230 225 223 219 219 222 225 228 234 238 238 233 241 243 246 232 240 243 241 277 271 275 280 278 290
244 219 232 253 232 57 282 291 277 229 273 269 254 272 292 299 292 292 289 286 288 284 281 255 236 227 223 222 223 221 226 230 235 237 234 234 231 233 225 228 237 247 249 240 253 256 256 266 271
225 185 45 52 89 238 231 209 191 223 240 275 268 277 290 298 291 283 288 284 277 274 268 266 240 226 222 220 221 224 228 230 234 239 240 238 236 232 230 227 227 230 232 237 243 238 267 270 275
127 81 311 312 300 264 222 238 252 234 247 227 269 300 303 299 286 286 284 286 280 273 263 256 243 227 222 220 219 222 225 232 236 242 244 243 244 243 238 238 242 247 245 246 251 250 249 263 274
185 160 181 245 242 273 29 242 247 217 250 308 321 316 311 297 281 280 283 280 282 278 264 245 236 225 218 217 217 217 223 231 239 245 252 256 260 258 254 252 251 251 251 251 254 249 250 259 265
193 177 199 175 44 340 225 295 305 279 12 354 345 8 328 334 317 304 312 310 294 282 264 247 230 214 209 210 209 215 214 228 224 242 267 263 259 259 259 252 249 250 251 253 255 255 254 247 252
171 149 121 17 294 264 239 264 242 267 255 315 342 343 352 341 322 330 343 337 330 302 266 243 214 207 202 210 213 218 233 218 227 241 252 272 264 256 256 252 245 245 249 252 257 265 265 261 260
166 178 67 96 167 261 289 253 219 249 234 285 301 319 315 320 324 301 336 16 23 326 279 209 198 202 207 200 216 212 213 220 227 235 241 247 247 248 247 244 239 235 234 240 245 258 273 276 274
87 131 150 164 213 231 240 264 309 282 251 270 303 314 317 313 320 311 306 287 283 302 343 255 246 226 223 218 227 227 230 231 233 235 240 241 241 235 241 237 233 233 240 248 259 285 312 313 303